sat.trackr.live / text

‹ back to catalog

FLOCK 4BE-29

NORAD 60509 · 2024-149AT

PAYLOAD ACTIVE UNKNOWN

§ Identity

Operator
Country
US
Launch date
2024-08-16
Launch site
AFWTR
Launch vehicle
Mass (kg)
RCS (m²)

Purposes: earth_obs

External: N2YO · Heavens-Above · Gunter

§ Orbital elements

Epoch: 2026-05-24T18:42:57.777696Z

Period
93.31 min
Inclination
97.3807°
Eccentricity
0.0003068
Mean motion
15.43260921 rev/d
Perigee alt
434.4 km
Apogee alt
438.6 km
Semi-major
6,814.6 km
B*
3.2926e-4
RAAN
230.3158°
Arg perigee
52.6195°
Mean anomaly
307.5332°
Rev number
9,880

§ Raw data

FLOCK 4BE-291 60509U 24149AT  26144.77983539  .00014561  00000+0  32926-3 0  99992 60509  97.3807 230.3158 0003068  52.6195 307.5332 15.43260921 98804

JSON: /api/v1/satellites/60509 · /tle

For live sub-satellite position, see the globe view (requires WebGL).

§ Visibility from observer

Set your observer location to see the next 7 days of passes ≥ 10°. The values pass through the URL so the page stays shareable.

No JS? Fill the form by hand. The geolocation button needs JavaScript.